FW0693 Weather Reports


time (UTC)temp
C
wind
direction
speed
KPH
gust
KPH
rain 1hr
cm
rain 24hr
cm
rain mn
cm
humidity
%
barometer
mb
20260505041549 10 298 3.2 4.8 0.00 0.08 0.00 91 1009.4
20260505040013 10 296 1.6 6.4 0.00 0.08 0.00 91 1009.5
20260505034537 10 32 0.0 0.0 0.00 0.08 0.00 91 1009.4
20260505033007 10 35 0.0 0.0 0.00 0.08 0.00 91 1009.7
20260505031544 10 35 0.0 0.0 0.00 0.08 0.00 91 1010.0
20260505030007 10 35 0.0 0.0 0.00 0.08 0.00 91 1010.1
20260505024531 10 36 0.0 0.0 0.00 0.08 0.00 91 1010.2
20260505023056 10 36 0.0 0.0 0.00 0.08 0.00 90 1010.1
20260505021513 10 36 0.0 0.0 0.00 0.08 0.00 90 1010.3
20260505020039 10 36 0.0 0.0 0.00 0.08 0.00 90 1010.3
20260505014509 10 36 0.0 0.0 0.00 0.08 0.00 90 1010.4
20260505013010 10 36 0.0 0.0 0.00 0.08 0.00 89 1010.3
20260505011541 10 36 0.0 0.0 0.00 0.08 0.00 89 1010.2
20260505010002 10 36 0.0 0.0 0.00 0.08 0.00 89 1010.2
20260505004528 10 51 0.0 0.0 0.00 0.08 0.00 89 1010.2
20260505003053 11 109 0.0 0.0 0.00 0.08 0.00 90 1010.5
20260505001509 11 144 0.0 0.0 0.00 0.08 0.00 90 1010.7
20260505000050 11 144 0.0 0.0 0.00 0.08 0.00 90 1010.8
20260504234504 11 144 0.0 0.0 0.00 0.08 0.00 90 1010.9
20260504233031 11 144 0.0 0.0 0.00 0.08 0.00 90 1011.0
20260504231603 11 144 0.0 0.0 0.00 0.08 0.00 89 1011.1
20260504230023 11 144 0.0 0.0 0.00 0.08 0.00 89 1011.1
20260504224554 11 144 0.0 0.0 0.00 0.08 0.00 89 1011.3
20260504223030 11 144 0.0 0.0 0.00 0.08 0.00 89 1011.4
20260504221508 12 144 0.0 0.0 0.00 0.08 0.00 89 1011.5
20260504220046 12 144 0.0 0.0 0.00 0.08 0.00 89 1011.7
20260504214528 12 144 0.0 0.0 0.00 0.08 0.08 89 1011.7
20260504213009 12 146 0.0 0.0 0.00 0.08 0.08 88 1011.9
20260504211555 12 146 0.0 0.0 0.00 0.08 0.08 88 1012.0
20260504210031 12 146 0.0 0.0 0.00 0.08 0.08 88 1012.0
20260504204514 12 146 0.0 0.0 0.00 0.08 0.08 88 1012.0
20260504203036 12 146 0.0 0.0 0.00 0.08 0.08 87 1012.1
20260504201504 12 146 0.0 0.0 0.00 0.08 0.08 87 1012.2
20260504200044 13 145 0.0 0.0 0.00 0.08 0.08 87 1012.2
20260504194511 13 144 0.0 0.0 0.00 0.08 0.08 86 1012.1
20260504193039 13 144 0.0 0.0 0.00 0.08 0.08 86 1011.9
20260504191501 13 144 0.0 0.0 0.00 0.08 0.08 86 1011.8
20260504190029 13 144 0.0 4.8 0.00 0.08 0.08 86 1011.8
20260504184638 13 144 0.0 4.8 0.00 0.08 0.08 85 1011.7
20260504183027 13 150 3.2 12.9 0.00 0.08 0.08 85 1011.6
20260504181551 13 113 1.6 12.9 0.00 0.08 0.08 85 1011.7
20260504180012 13 126 3.2 11.3 0.00 0.08 0.08 84 1011.7
20260504174540 13 163 1.6 12.9 0.00 0.08 0.08 84 1011.8
20260504173009 14 138 4.8 12.9 0.00 0.08 0.08 83 1011.8
20260504171532 14 122 1.6 11.3 0.00 0.08 0.08 83 1012.0
20260504081537 13 143 0.0 0.0 0.00 0.64 0.00 93 1013.4